Regional Weather Roundup
Issued by NWS

Home | Current Version | Previous Version | Graphics & Text | Print | Product List | Glossary On
Versions: 1 2 3 4 5 6 7 8 9 10 11 12 13 14 15 16 17 18 19 20 21 22 23 24 25 26 27 28 29 30 31 32 33 34 35 36 37 38 39 40 41 42 43 44 45 46 47 48 49
000
ASUS45 KSLC 181410
RWRUT

UTAH REGIONAL WEATHER ROUNDUP
NATIONAL WEATHER SERVICE SALT LAKE CITY UT
700 AM MST THU DEC 18 2014

UTZ001>011-023>025-181500-

NORTHERN UTAH

CITY           SKY/WX    TMP DP  RH WIND       PRES   REMARKS
BRIGHAM CITY   CLOUDY    31  28  88 CALM      30.12S
HILL AFB       FLURRIES  32  25  76 E9        30.10R WCI  24
LOGAN          CLOUDY    30  25  81 CALM      30.11R
OGDEN          CLOUDY    32  26  78 SE6       30.10R WCI  26
PROVO AIRPORT  MOCLDY    34  30  86 CALM      30.12R
SALT LAKE CITY MOCLDY    31  30  96 SW3       30.11R
VERNAL         CLOUDY    24  23  96 SE5       30.15R FOG     WCI  18
WENDOVER       CLOUDY    25  19  80 CALM      30.12R
HEBER CITY     CLOUDY    28  27  93 CALM      30.10R
WEST JORDAN    CLOUDY    34  34 100 CALM      30.11R

$$

UTZ012>022-026-027-181500-

SOUTHERN/CENTRAL UTAH

CITY           SKY/WX    TMP DP  RH WIND       PRES   REMARKS
BLANDING       MOCLDY    31  31 100 CALM      30.18R
BRYCE CANYON   PTCLDY    14  10  84 W9        30.09R WCI   2
CEDAR CITY     CLOUDY    31  29  92 S7        30.09R WCI  24
DELTA          CLEAR     28  28  98 S6        30.10R WCI  22
MILFORD        CLOUDY    33  30  88 SW7       30.09R WCI  27
MOAB/CYNLANDS  CLOUDY    34  33  96 NW3       30.11R
PRICE          FOG       26  23  88 E5        30.09R VSB 1/4 WCI  20
ST GEORGE      CLOUDY    43  37  81 CALM      30.15R
KANAB          CLOUDY    34  34 100 E3        30.16

$$

REGIONAL REPORTS     COLORADO/ARIZONA

CITY           SKY/WX    TMP DP  RH WIND       PRES   REMARKS
CRAIG, CO      CLOUDY    25  23  92 CALM      30.11R FOG
GRAND JUNCTION LGT SNOW  32  32 100 NW5       30.11R FOG     WCI  27
RIFLE          CLOUDY    32  31  96 CALM      30.10R FOG
MONTROSE       LGT SNOW  32  32 100 CALM      30.11R FOG
CORTEZ         CLOUDY    32  31  96 CALM      30.11R
PAGE, AZ       CLOUDY    37  33  85 SW3       30.11R
GRAND CANYON   CLOUDY    30  29  96 NE3       30.10R
KINGMAN        LGT RAIN  39  38  96 S5        30.12R
FLAGSTAFF      LGT SNOW  29  27  92 S5        30.09R FOG     WCI  24

$$

REGIONAL REPORTS    NEVADA/IDAHO/WYOMING

CITY           SKY/WX    TMP DP  RH WIND       PRES   REMARKS
LAS VEGAS, NV  MOCLDY    47  41  80 CALM      30.09R
ELY            CLOUDY    21  18  88 S8        30.11R WCI  11
ELKO           CLOUDY    27  23  85 CALM      30.10R
POCATELLO, ID  FOG       21  21 100 CALM      30.12R VSB 1/2
BURLEY         MOCLDY    24  21  88 E3        30.09R
EVANSTON, WY   CLOUDY    21  19  92 SW6       30.07R WCI  13
ROCK SPRINGS   PTCLDY    16  14  92 W9        30.07R WCI   4
KEMMERER       MOCLDY    19  18  93 CALM      30.06

$$


USA.gov is the U.S. government's official web portal to all federal, state and local government web resources and services.